Regional Weather Roundup
Issued by NWS

Home | Current Version | Previous Version | Text Only | Print | Product List | Glossary Off
Versions: 1 2 3 4 5 6 7 8 9 10 11 12 13 14 15 16 17 18 19 20 21 22 23 24 25 26 27 28 29 30 31 32 33 34 35 36 37 38 39 40 41 42 43 44 45 46 47 48 49 50

000
ASUS43 KLSX 040007
RWRMO

WEATHER ROUNDUP FOR MISSOURI
NATIONAL WEATHER SERVICE ST LOUIS MO
700 PM CDT MON AUG 03 2015

NOTE: "FAIR" INDICATES FEW OR NO CLOUDS BELOW 12,000 FEET WITH NO
       SIGNIFICANT WEATHER AND/OR OBSTRUCTIONS TO VISIBILITY.
       CURRENT SKY AND/OR WEATHER CONDITIONS ARE NOT AVAILABLE FOR
       CHILLICOTHE AND FARMINGTON.

MOZ001>031-035>038-043-044-053-054-040100-
...NORTHERN AND WESTERN MISSOURI...

CITY           SKY/WX    TMP DP  RH WIND       PRES   REMARKS
KANSAS CTY INT MOSUNNY   83  70  64 NE12      29.91S
6HR MIN TEMP:  79; 6HR MAX TEMP:  85;

KANSAS C DTWN  SUNNY     86  70  58 E8        29.88S HX  90
6HR MIN TEMP:  84; 6HR MAX TEMP:  92;

LEE`S SUMMIT   SUNNY     85  72  65 E6        29.90F HX  91
6HR MIN TEMP:  83; 6HR MAX TEMP:  90;

ST JOSEPH      MOSUNNY   80  70  71 NE8       29.91F
6HR MIN TEMP:  78; 6HR MAX TEMP:  84;

CHILLICOTHE      N/A     79  71  76 CALM      29.93F
6HR MIN TEMP:  73; 6HR MAX TEMP:  83;

KIRKSVILLE     MOSUNNY   77  65  66 CALM      29.94S
6HR MIN TEMP:  70; 6HR MAX TEMP:  82; 6HR PCP:  0.02;


$$
MOZ066>068-077>081-088>096-101>105-040100-
...SOUTHWEST MISSOURI...

CITY           SKY/WX    TMP DP  RH WIND       PRES   REMARKS
SPRINGFIELD    SUNNY     89  65  44 SW6       29.94S HX  91
6HR MIN TEMP:  89; 6HR MAX TEMP:  93;

JOPLIN         MOSUNNY   89  65  44 SW10      29.93S HX  91
6HR MIN TEMP:  89; 6HR MAX TEMP:  96;


$$
MOZ032>034-039>042-045>050-055>058-069>072-040100-
...CENTRAL MISSOURI...

CITY           SKY/WX    TMP DP  RH WIND       PRES   REMARKS
COLUMBIA       SUNNY     86  69  56 W3        29.91F HX  90
6HR MIN TEMP:  84; 6HR MAX TEMP:  89;

JEFFERSON CITY SUNNY     88  67  49 NW6       29.89S HX  91
6HR MIN TEMP:  86; 6HR MAX TEMP:  90;

ROLLA          SUNNY     85  68  56 SW3       29.92F
6HR MIN TEMP:  85; 6HR MAX TEMP:  89;

SEDALIA        SUNNY     85  72  65 SE5       29.91F HX  91
6HR MIN TEMP:  84; 6HR MAX TEMP:  88;

WHITEMAN AFB   MOSUNNY   85  74  67 SE3       29.89S HX  93
6HR MIN TEMP:  84; 6HR MAX TEMP:  88;

FT LEONARD WD  MOSUNNY   85  72  65 N6        29.93S HX  91
6HR MIN TEMP:  85; 6HR MAX TEMP:  91;

OSAGE BEACH    MOSUNNY   86  72  62 CALM      29.92S HX  92

$$
MOZ051-052-059>065-040100-
...EAST CENTRAL MISSOURI...

CITY           SKY/WX    TMP DP  RH WIND       PRES   REMARKS
ST LOUIS INTL  MOSUNNY   87  67  51 N8        29.90S HX  90
6HR MIN TEMP:  87; 6HR MAX TEMP:  94;

SPIRIT OF STL  MOSUNNY   88  67  49 NW5       29.88S HX  91
6HR MIN TEMP:  88; 6HR MAX TEMP:  91;

ST CHARLES     SUNNY     86  70  58 N8        29.88S HX  90
6HR MIN TEMP:  86; 6HR MAX TEMP:  91;


$$
MOZ072>076-082>087-097>100-106>115-040100-
...SOUTH CENTRAL AND SOUTHEAST MISSOURI...

CITY           SKY/WX    TMP DP  RH WIND       PRES   REMARKS
CAPE GIRARDEAU MOSUNNY   89  72  56 N5        29.89S HX  96
6HR MIN TEMP:  89; 6HR MAX TEMP:  93;

FARMINGTON     SUNNY     86  70  58 W6        29.95F HX  90
POPLAR BLUFF   MOSUNNY   91  70  49 W3        29.88S HX  96
6HR MIN TEMP:  91; 6HR MAX TEMP:  95;

WEST PLAINS    MOSUNNY   88  66  48 W3        29.96S HX  90
6HR MIN TEMP:  88; 6HR MAX TEMP:  92;

$$



USA.gov is the U.S. government's official web portal to all federal, state and local government web resources and services.